Stip, Macedonia

02:25 PM CET на 16 Декември, 2018 (GMT +0100)
Skopje | | Change Station

Elev 784 ft 41.97 °N, 21.65 °E | Updated 25 minutes ago

Заоблачено
Заоблачено
36 °F
Feels Like 33 °F
С
4
Ветер Променлив Ветер from ССЗ

Денес
High -- | Low -- °F
--% Chance of Precip.
Вчера
High -- | Low -- °F
Precip. -- инчи
Притисок 30.06 инчи
Видливост 6.2 миљи
Облаци Делумно облачно 2600 ft
Заоблачено 4000 ft
Лични чувство за темп. со ветерот 33 °F
Точка на kондензација 30 °F
Влажност 81%
Дожд 0.00 инчи
Височина на снег Not available.
6:51 AM 4:01 PM
Првиот квартал, 60% visible
METAR LWSK 161300Z 33003KT 9999 SCT026 OVC040 02/M01 Q1018 R99/1///95 NOSIG
Притисок 30.06 инчи
Видливост 6.2 миљи
Облаци Делумно облачно 2600 ft
Заоблачено 4000 ft
Лични чувство за темп. со ветерот 33 °F
Точка на kондензација 30 °F
Влажност 81%
Дожд 0.00 инчи
Височина на снег Not available.
6:51 AM 4:01 PM
Првиот квартал, 60% visible
METAR LWSK 161300Z 33003KT 9999 SCT026 OVC040 02/M01 Q1018 R99/1///95 NOSIG

Get Severe Weather Alerts

Thanks for signing up!

Be on the lookout for a verification email in your inbox.

You'll start receiving the daily forecast at 6 AM.

×

10-Day Weather Forecast

×

Almanac

Астрономијата

Dec. 16, 2018 Изгревање Заоѓање
Актуелно време
Граѓанскиот самрак
Наутички самрак
Астрономски самрак
Месечината
Должина на видливата светлина
Должина на денот
Tomorrow will be .
, % of the Moon is Illuminated

Екстреми денес

Country Highs Country Lows

Community

WunderPhotos

Category 6

Welcome to Category 6. This is the collective home for Weather Underground's featured writeups by Dr. Jeff Masters (right), Bob Henson (left), Chris Burt, and other regular contributors.

Nearby

Квалитетот на воздухот

  Квалитетот на воздухот AQ индекс Загадувач
Not available.

Височина на снег

Station Depth Висина

Earthquake Activity

Град Distance Mag. Time & Date
Minimum magnitude displayed is 2.5.

Coastal Water Temperatures

Место Температура

Stations

Nearby Weather Stations

Локација на станицата Темп. Лични чувство за темп. со ветерот Точка на kондензација Влажност Ветер Precip. Elev Ажурирани Тип